Home   Weather   Nanjing   Past weeks

Flag for China Past Weather in Nanjing, Jiangsu, China — Yesterday and Last 2 Weeks

Now
57 °F

Clear.


Feels Like: 57 °F
Forecast: 50 / 79 °F
Wind: 1 mph from West

Location: Nanjing

Current Time: Apr 27, 2017 at 9:21:00 pm

Latest Report: Apr 27, 2017 at 9:00 pm


Visibility: 10 mi

Pressure: 30.07 "Hg

Humidity: 67%

Dew Point: 46 °F

Location of NanjingLocation

Past Weather in Nanjing — Graph

°F

Nanjing Temperature Yesterday

Maximum temperature yesterday: 68 °F (at 1:00 pm)
Minimum temperature yesterday: 59 °F (at 11:00 pm)
Average temperature yesterday: 63 °F

High & Low Weather Summary for the Past Weeks

 TemperatureHumidityPressure
High86 °F (Apr 15, 2:00 pm)100% (Apr 13, 5:00 am)30.15 "Hg (Apr 13, 5:00 am)
Low45 °F (Apr 13, 5:00 am)22% (Apr 13, 3:00 pm)29.62 "Hg (Apr 18, 4:00 am)
Average67 °F65%29.90 "Hg
* Reported Apr 12 8:00 pm — Apr 27 8:00 pm, Nanjing, Weather by CustomWeather, © 2017

Note: Actual official high and low records may vary slightly from our data, if they occured in-between our weather recording intervals... More about our weather records

Advertising

Nanjing Weather History for the Previous 24 Hours

Scroll right to see more
 ConditionsComfort  
Time TempWeatherWind HumidityBarometerVisibility
8:00 pm
Thu, Apr 27
57 °FClear.3 mph67%30.04 "Hg10 mi
7:00 pm64 °FPassing clouds.1 mph46%30.01 "HgN/A
6:00 pm68 °FScattered clouds.3 mph35%30.01 "HgN/A
5:00 pm72 °FPassing clouds.3 mph29%30.01 "HgN/A
4:00 pm73 °FPassing clouds.3 mph25%30.04 "HgN/A
3:00 pm72 °FPassing clouds.6 mph25%30.04 "HgN/A
2:00 pm72 °FPassing clouds.6 mph25%30.07 "HgN/A
1:00 pm72 °FPassing clouds.8 mph23%30.09 "HgN/A
12:00 pm72 °FSunny.6 mph29%30.12 "Hg10 mi
11:00 am70 °FSunny.1 mph27%30.15 "Hg10 mi
10:00 am68 °FSunny.1 mph28%30.15 "Hg10 mi
9:00 am64 °FSunny.1 mph43%30.15 "Hg10 mi
8:00 am61 °FSunny.1 mph63%30.15 "Hg10 mi
7:00 am57 °FSunny.1 mph82%30.15 "Hg10 mi
6:00 am54 °FSunny.No wind94%30.12 "Hg10 mi
5:00 am52 °FClear.1 mph94%30.12 "Hg10 mi
4:00 am54 °FClear.1 mph94%30.12 "Hg10 mi
3:00 am54 °FClear.1 mph88%30.12 "Hg10 mi
2:00 am55 °FClear.1 mph88%30.12 "Hg10 mi
1:00 am57 °FClear.1 mph77%30.15 "Hg10 mi
12:00 am57 °FClear.3 mph72%30.15 "Hg10 mi
11:00 pm
Wed, Apr 26
59 °FClear.3 mph63%30.15 "Hg10 mi
10:00 pm61 °FClear.6 mph59%30.15 "Hg10 mi
9:00 pm61 °FClear.6 mph63%30.15 "Hg10 mi
Weather by CustomWeather, © 2017

See weather overviewHow to use our weather pages